Fullerton, CA

2:49 PM PDT on October 17, 2017 (GMT -0700)
Fullerton Municipal

Weather History for KFUL - October, 2011

Change the Weather History Date:

Saturday, October 22, 2011

  Actual Average Record
Temperature  
Mean Temperature 69 °F 67 °F  
Max Temperature 84 °F 78 °F 99 °F (2008)
Min Temperature 54 °F 56 °F 53 °F (2004)
Degree Days  
Heating Degree Days 0 1  
Month to date heating degree days 9 7  
Since 1 July heating degree days 9 8  
Cooling Degree Days 4 3  
Month to date cooling degree days 128 92  
Year to date cooling degree days 1152 1210  
Growing Degree Days 18 (Base 50)    
Moisture  
Dew Point 56 °F    
Average Humidity 68    
Maximum Humidity 93    
Minimum Humidity 43    
Precipitation  
Precipitation 0.00 in 0.03 in 0.00 in (2017)
Month to date precipitation 0.70 0.46  
Year to date precipitation 6.33 10.44  
Since 1 July precipitation 0.76  
Snow  
Snow 0.00 in - - ()
Month to date snowfall 0.0  
Year to date snowfall 0.0  
Snow Depth 0.00 in    
Sea Level Pressure  
Sea Level Pressure 29.98 in    
Wind  
Wind Speed 1 mph (South)    
Max Wind Speed 8 mph    
Max Gust Speed 21 mph    
Visibility 4 miles    
Events Fog    
T = Trace of Precipitation, MM = Missing Value Source: NWS Daily Summary

Daily Weather History Graph

Daily Weather History Graph

Search for Another Location

Airport or City:

Trip Planner

Search our weather history database for the weather conditions in past years. The results will help you decide how hot, cold, wet, or windy it might be!

Date:

Astronomy

Oct. 22, 2011 Rise Set
Actual Time 7:02 AM PDT 6:09 PM PDT
Civil Twilight 6:37 AM PDT 6:35 PM PDT
Nautical Twilight 6:07 AM PDT 7:04 PM PDT
Astronomical Twilight 5:38 AM PDT 7:33 PM PDT
Moon 2:18 AM PDT (10/22) 3:19 PM PDT (10/22)
Length of Visible Light 11h 58m
Length of Day
11h 07m
Waning Crescent, 22% of the Moon is Illuminated
Oct 22
Waning Crescent
Oct 26
New
Nov 2
First Quarter
Nov 10
Full
Nov 18
Last Quarter

Hourly Weather History & Observations

Time (PDT) Temp. Heat Index Dew Point Humidity Pressure Visibility Wind Dir Wind Speed Gust Speed Precip Events Conditions
12:53 AM 60.1 °F - 55.0 °F 83% 30.02 in 5.0 mi Calm Calm - N/A   Haze
2:53 AM 57.9 °F - 54.0 °F 87% 30.00 in 4.0 mi Calm Calm - N/A   Clear
3:53 AM 57.9 °F - 54.0 °F 87% 29.99 in 4.0 mi Calm Calm - N/A   Clear
4:53 AM 55.9 °F - 53.1 °F 90% 29.99 in 4.0 mi Calm Calm - N/A   Clear
5:53 AM 55.9 °F - 52.0 °F 87% 29.99 in 4.0 mi Calm Calm - N/A   Mist
6:53 AM 55.9 °F - 52.0 °F 87% 30.00 in 4.0 mi Calm Calm - N/A   Clear
7:53 AM 57.0 °F - 53.1 °F 87% 30.01 in 3.0 mi Calm Calm - N/A   Clear
8:53 AM 61.0 °F - 55.0 °F 81% 30.03 in 3.0 mi Calm Calm - N/A   Haze
9:53 AM 66.0 °F - 55.9 °F 70% 30.04 in 3.0 mi Calm Calm - N/A   Haze
10:53 AM 69.1 °F - 55.9 °F 63% 30.04 in 4.0 mi Calm Calm - N/A   Haze
11:53 AM 73.0 °F - 57.0 °F 57% 30.01 in 3.0 mi Calm Calm - N/A   Haze
12:53 PM 78.1 °F - 57.0 °F 48% 29.98 in 4.0 mi Calm Calm - N/A   Haze
1:53 PM 82.9 °F 82.6 °F 57.9 °F 42% 29.96 in 4.0 mi Variable 3.5 mph - N/A   Haze
2:53 PM 80.1 °F 80.7 °F 59.0 °F 48% 29.94 in 5.0 mi Variable 4.6 mph - N/A   Haze
3:53 PM 79.0 °F - 59.0 °F 50% 29.93 in 6.0 mi SW 5.8 mph - N/A   Haze
4:53 PM 78.1 °F - 59.0 °F 52% 29.91 in 8.0 mi SW 3.5 mph - N/A   Clear
5:53 PM 73.9 °F - 59.0 °F 59% 29.91 in 8.0 mi Calm Calm - N/A   Clear
6:53 PM 69.1 °F - 57.9 °F 68% 29.92 in 8.0 mi WNW 4.6 mph - N/A   Clear
7:53 PM 66.0 °F - 57.0 °F 73% 29.93 in 6.0 mi Calm Calm - N/A   Haze
8:53 PM 64.0 °F - 57.0 °F 78% 29.96 in 5.0 mi South 3.5 mph - N/A   Haze
9:53 PM 63.0 °F - 57.9 °F 84% 29.97 in 5.0 mi South 4.6 mph - N/A   Haze
10:07 PM 62.6 °F - 57.2 °F 82% 29.98 in 2.5 mi SSE 4.6 mph - N/A   Scattered Clouds
10:18 PM 60.8 °F - 57.2 °F 88% 29.98 in 2.0 mi SSE 4.6 mph - N/A   Mostly Cloudy
10:30 PM 60.8 °F - 57.2 °F 88% 29.98 in 1.0 mi South 3.5 mph - N/A   Overcast
10:45 PM 60.8 °F - 57.2 °F 88% 29.98 in 0.5 mi Calm Calm - N/A Fog Fog
10:53 PM 61.0 °F - 57.9 °F 90% 29.98 in 0.5 mi South 3.5 mph - N/A Fog Fog
11:06 PM 60.8 °F - 57.2 °F 88% 29.98 in 1.0 mi Calm Calm - N/A   Mist
11:38 PM 60.8 °F - 57.2 °F 88% 29.98 in 0.5 mi South 3.5 mph - N/A Fog Fog
11:53 PM 60.1 °F - 57.9 °F 93% 29.98 in 0.8 mi Calm Calm - N/A   Overcast